Time,TemperatureF,DewpointF,PressureIn,WindDirection,WindDirectionDegrees,WindSpeedMPH,WindSpeedGustMPH,Humidity,HourlyPrecipIn,Conditions,Clouds,dailyrainin,SoftwareType,DateUTC
2013-08-01 00:01:00,63.1,62.5,30.06,NW,309,0.0,0.0,98,0.01,,-RA,0.00,VWS V14.00,2013-08-01 04:01:00,
2013-08-01 00:02:00,63.1,62.5,30.06,NW,309,0.0,0.0,98,0.01,,-RA,0.00,VWS V14.00,2013-08-01 04:02:00,
2013-08-01 00:07:00,63.1,62.5,30.06,NW,309,0.0,0.0,98,0.01,,-RA,0.00,VWS V14.00,2013-08-01 04:07:00,
2013-08-01 00:12:00,63.1,62.5,30.06,NW,309,0.0,0.0,98,0.01,,-RA,0.00,VWS V14.00,2013-08-01 04:12:00,
2013-08-01 00:17:00,63.1,62.5,30.06,NW,309,0.0,0.0,98,0.01,,-RA,0.00,VWS V14.00,2013-08-01 04:17:00,
2013-08-01 00:23:00,63.1,62.5,30.06,NW,309,0.0,0.0,98,0.02,,-RA,0.01,VWS V14.00,2013-08-01 04:23:00,
2013-08-01 00:28:00,63.1,62.5,30.06,NW,309,0.0,0.0,98,0.02,,-RA,0.01,VWS V14.00,2013-08-01 04:28:00,
2013-08-01 00:33:00,63.1,62.5,30.06,NW,309,0.0,0.0,98,0.02,,-RA,0.01,VWS V14.00,2013-08-01 04:33:00,
2013-08-01 00:38:00,63.1,62.5,30.06,NW,309,0.0,0.0,98,0.01,,-RA,0.01,VWS V14.00,2013-08-01 04:38:00,
2013-08-01 00:43:00,63.1,62.5,30.06,NW,309,0.0,0.0,98,0.01,,-RA,0.01,VWS V14.00,2013-08-01 04:43:00,
2013-08-01 00:48:00,63.1,62.5,30.06,NW,309,0.0,0.0,98,0.01,,-RA,0.01,VWS V14.00,2013-08-01 04:48:00,
2013-08-01 00:53:00,63.1,62.5,30.06,NW,309,0.0,0.0,98,0.02,,-RA,0.02,VWS V14.00,2013-08-01 04:53:00,
2013-08-01 00:58:00,63.1,62.5,30.06,NW,309,0.0,0.0,98,0.02,,-RA,0.02,VWS V14.00,2013-08-01 04:58:00,
2013-08-01 01:03:00,63.1,62.5,30.03,NW,309,0.0,0.0,98,0.02,,OVC021,0.02,VWS V14.00,2013-08-01 05:03:00,
2013-08-01 01:08:00,63.1,62.5,30.03,NW,309,0.0,0.0,98,0.02,,OVC021,0.02,VWS V14.00,2013-08-01 05:08:00,
2013-08-01 01:13:00,63.1,62.5,30.03,NW,309,0.0,0.0,98,0.03,,OVC021,0.03,VWS V14.00,2013-08-01 05:13:00,
2013-08-01 01:18:00,63.1,62.5,30.03,NW,309,0.0,0.0,98,0.03,,OVC021,0.03,VWS V14.00,2013-08-01 05:18:00,
2013-08-01 01:23:00,63.1,62.5,30.03,NW,309,0.0,0.0,98,0.02,,OVC021,0.03,VWS V14.00,2013-08-01 05:23:00,
2013-08-01 01:28:00,63.1,62.5,30.03,NW,309,0.0,0.0,98,0.02,,OVC021,0.03,VWS V14.00,2013-08-01 05:28:00,
2013-08-01 01:34:00,63.1,62.5,30.03,NW,309,0.0,0.0,98,0.02,,OVC021,0.03,VWS V14.00,2013-08-01 05:34:00,
2013-08-01 01:39:00,63.1,62.5,30.03,NW,309,0.0,0.0,98,0.02,,OVC021,0.03,VWS V14.00,2013-08-01 05:39:00,
2013-08-01 01:44:00,63.1,62.5,30.03,NW,309,0.0,0.0,98,0.02,,OVC021,0.03,VWS V14.00,2013-08-01 05:44:00,
2013-08-01 01:49:00,63.1,62.5,30.03,NW,309,0.0,0.0,98,0.02,,,0.03,VWS V14.00,2013-08-01 05:49:00,
2013-08-01 01:54:00,63.1,62.5,30.03,NW,309,0.0,0.0,98,0.01,,,0.03,VWS V14.00,2013-08-01 05:54:00,
2013-08-01 01:59:00,63.1,62.5,30.03,NW,309,0.0,0.0,98,0.02,,,0.04,VWS V14.00,2013-08-01 05:59:00,
2013-08-01 02:04:00,63.1,62.5,30.03,NW,309,0.0,0.0,98,0.02,,,0.04,VWS V14.00,2013-08-01 06:04:00,
2013-08-01 02:09:00,63.1,62.5,30.03,NW,309,0.0,0.0,98,0.02,,,0.04,VWS V14.00,2013-08-01 06:09:00,
2013-08-01 02:14:00,63.1,62.5,30.03,NW,309,0.0,0.0,98,0.02,,,0.05,VWS V14.00,2013-08-01 06:14:00,
2013-08-01 02:27:00,63.1,62.5,30.03,NW,309,0.0,0.0,98,0.02,,,0.05,VWS V14.00,2013-08-01 06:27:00,
2013-08-01 02:32:00,63.1,62.5,30.03,NW,309,0.0,0.0,98,0.02,,,0.05,VWS V14.00,2013-08-01 06:32:00,
2013-08-01 02:37:00,63.1,62.5,30.03,NW,309,0.0,0.0,98,0.03,,,0.06,VWS V14.00,2013-08-01 06:37:00,
2013-08-01 02:42:00,63.1,62.5,30.03,NW,309,0.0,0.0,98,0.03,,,0.06,VWS V14.00,2013-08-01 06:42:00,
2013-08-01 02:47:00,63.1,62.5,30.03,NW,309,0.0,0.0,98,0.03,,,0.06,VWS V14.00,2013-08-01 06:47:00,
2013-08-01 02:52:00,63.1,62.5,30.03,NW,309,0.0,0.0,98,0.03,,,0.06,VWS V14.00,2013-08-01 06:52:00,
2013-08-01 02:57:00,63.1,62.5,30.03,NW,309,0.0,0.0,98,0.04,,,0.07,VWS V14.00,2013-08-01 06:57:00,
2013-08-01 03:02:00,63.1,62.5,30.00,NW,309,0.0,0.0,98,0.03,,OVC006,0.07,VWS V14.00,2013-08-01 07:02:00,
2013-08-01 03:07:00,63.1,62.5,30.00,NW,309,0.0,0.0,98,0.03,,OVC006,0.07,VWS V14.00,2013-08-01 07:07:00,
2013-08-01 03:12:00,63.1,62.5,30.00,NW,309,0.0,0.0,98,0.03,,OVC006,0.07,VWS V14.00,2013-08-01 07:12:00,
2013-08-01 03:17:00,63.1,62.5,30.00,NW,309,0.0,0.0,98,0.02,,OVC006,0.07,VWS V14.00,2013-08-01 07:17:00,
2013-08-01 03:22:00,63.1,62.5,30.00,NW,309,0.0,0.0,98,0.02,,OVC006,0.07,VWS V14.00,2013-08-01 07:22:00,
2013-08-01 03:28:00,63.1,62.5,30.00,NW,309,0.0,0.0,98,0.02,,OVC006,0.07,VWS V14.00,2013-08-01 07:28:00,
2013-08-01 03:33:00,63.1,62.5,30.00,NW,309,0.0,0.0,98,0.04,,OVC006,0.09,VWS V14.00,2013-08-01 07:33:00,
2013-08-01 03:38:00,63.1,62.5,30.00,NW,309,0.0,0.0,98,0.03,,OVC006,0.09,VWS V14.00,2013-08-01 07:38:00,
2013-08-01 03:43:00,63.1,62.5,30.00,NW,309,0.0,0.0,98,0.03,,OVC006,0.09,VWS V14.00,2013-08-01 07:43:00,
2013-08-01 03:48:00,63.1,62.5,30.00,NW,309,0.0,0.0,98,0.03,,OVC004,0.09,VWS V14.00,2013-08-01 07:48:00,
2013-08-01 03:53:00,63.3,62.7,30.00,NW,309,0.0,0.0,98,0.03,,OVC004,0.09,VWS V14.00,2013-08-01 07:53:00,
2013-08-01 03:58:00,63.1,62.5,30.00,NW,309,0.0,0.0,98,0.02,,OVC004,0.09,VWS V14.00,2013-08-01 07:58:00,
2013-08-01 04:03:00,63.3,62.7,30.00,NW,309,0.0,0.0,98,0.02,,,0.09,VWS V14.00,2013-08-01 08:03:00,
2013-08-01 04:08:00,63.1,62.5,30.00,NW,309,0.0,0.0,98,0.02,,,0.09,VWS V14.00,2013-08-01 08:08:00,
2013-08-01 04:13:00,63.3,62.7,30.00,NW,309,0.0,0.0,98,0.02,,,0.09,VWS V14.00,2013-08-01 08:13:00,
2013-08-01 04:19:00,63.3,62.7,30.00,NW,309,0.0,0.0,98,0.02,,,0.09,VWS V14.00,2013-08-01 08:19:00,
2013-08-01 04:24:00,63.3,62.7,30.00,West,276,0.0,0.0,98,0.02,,,0.09,VWS V14.00,2013-08-01 08:24:00,
2013-08-01 04:29:00,63.1,62.5,30.00,West,276,0.0,0.0,98,0.02,,,0.09,VWS V14.00,2013-08-01 08:29:00,
2013-08-01 04:34:00,63.1,62.5,30.00,West,276,0.0,0.0,98,0.00,,,0.09,VWS V14.00,2013-08-01 08:34:00,
2013-08-01 04:39:00,63.1,62.5,30.00,West,276,0.0,0.0,98,0.00,,,0.09,VWS V14.00,2013-08-01 08:39:00,
2013-08-01 04:44:00,63.3,62.7,30.00,West,276,0.0,0.0,98,0.00,,,0.09,VWS V14.00,2013-08-01 08:44:00,
2013-08-01 04:50:00,63.3,62.7,30.00,West,276,0.0,0.0,98,0.00,,,0.09,VWS V14.00,2013-08-01 08:50:00,
2013-08-01 04:55:00,63.3,62.7,30.00,West,276,0.0,0.0,98,0.00,,,0.09,VWS V14.00,2013-08-01 08:55:00,
2013-08-01 05:00:00,63.3,62.7,30.00,West,276,0.0,0.0,98,0.00,,,0.09,VWS V14.00,2013-08-01 09:00:00,
2013-08-01 05:06:00,63.3,62.7,30.00,West,276,0.0,0.0,98,0.00,,,0.09,VWS V14.00,2013-08-01 09:06:00,
2013-08-01 05:12:00,63.3,62.7,30.00,West,276,0.0,0.0,98,0.00,,,0.09,VWS V14.00,2013-08-01 09:12:00,
2013-08-01 05:17:00,63.3,62.7,30.00,West,276,0.0,0.0,98,0.00,,,0.09,VWS V14.00,2013-08-01 09:17:00,
2013-08-01 05:23:00,63.1,62.5,30.00,West,276,0.0,0.0,98,0.00,,,0.09,VWS V14.00,2013-08-01 09:23:00,
2013-08-01 05:28:00,63.3,62.7,30.00,West,276,0.0,0.0,98,0.00,,,0.09,VWS V14.00,2013-08-01 09:28:00,
2013-08-01 05:33:00,63.3,62.7,30.00,West,276,0.0,0.0,98,0.01,,,0.10,VWS V14.00,2013-08-01 09:33:00,
2013-08-01 05:38:00,63.3,62.7,30.00,West,276,0.0,0.0,98,0.01,,,0.10,VWS V14.00,2013-08-01 09:38:00,
2013-08-01 05:43:00,63.3,62.7,30.00,West,276,0.0,0.0,98,0.01,,,0.10,VWS V14.00,2013-08-01 09:43:00,
2013-08-01 05:49:00,63.3,62.7,30.00,West,276,0.0,0.0,98,0.01,,,0.10,VWS V14.00,2013-08-01 09:49:00,
2013-08-01 05:54:00,63.3,62.7,30.00,West,276,0.0,0.0,98,0.01,,,0.10,VWS V14.00,2013-08-01 09:54:00,
2013-08-01 05:59:00,63.3,62.7,30.00,West,276,0.0,0.0,98,0.01,,,0.10,VWS V14.00,2013-08-01 09:59:00,
2013-08-01 06:05:00,63.3,62.7,29.97,West,276,0.0,0.0,98,0.01,,,0.10,VWS V14.00,2013-08-01 10:05:00,
2013-08-01 06:11:00,63.3,62.7,29.97,West,276,0.0,0.0,98,0.01,,,0.10,VWS V14.00,2013-08-01 10:11:00,
2013-08-01 06:16:00,63.3,62.7,30.00,West,276,0.0,0.0,98,0.01,,,0.10,VWS V14.00,2013-08-01 10:16:00,
2013-08-01 06:21:00,63.3,62.7,30.00,West,276,0.0,0.0,98,0.01,,,0.10,VWS V14.00,2013-08-01 10:21:00,
2013-08-01 06:27:00,63.3,62.7,30.00,West,276,0.0,0.0,98,0.01,,,0.10,VWS V14.00,2013-08-01 10:27:00,
2013-08-01 06:32:00,63.3,62.7,30.00,West,276,0.0,0.0,98,0.00,,,0.10,VWS V14.00,2013-08-01 10:32:00,
2013-08-01 06:37:00,63.3,62.7,30.00,West,276,0.0,0.0,98,0.00,,,0.10,VWS V14.00,2013-08-01 10:37:00,
2013-08-01 06:43:00,63.3,62.7,30.00,West,276,0.0,0.0,98,0.00,,,0.10,VWS V14.00,2013-08-01 10:43:00,
2013-08-01 06:48:00,63.3,62.7,30.00,West,276,0.0,0.0,98,0.00,,-RA,0.10,VWS V14.00,2013-08-01 10:48:00,
2013-08-01 06:53:00,63.1,62.5,30.00,West,276,0.0,0.0,98,0.00,,-RA,0.10,VWS V14.00,2013-08-01 10:53:00,
2013-08-01 06:59:00,63.3,62.7,30.00,West,276,0.0,0.0,98,0.00,,-RA,0.10,VWS V14.00,2013-08-01 10:59:00,
2013-08-01 07:04:00,63.3,62.7,30.00,West,276,0.0,0.0,98,0.00,,-RA,0.10,VWS V14.00,2013-08-01 11:04:00,
2013-08-01 07:09:00,63.5,62.9,30.00,West,276,0.0,0.0,98,0.00,,-RA,0.10,VWS V14.00,2013-08-01 11:09:00,
2013-08-01 07:14:00,63.5,62.9,30.00,West,276,0.0,0.0,98,0.00,,-RA,0.10,VWS V14.00,2013-08-01 11:14:00,
2013-08-01 07:19:00,63.5,62.9,30.00,West,276,0.0,0.0,98,0.00,,-RA,0.10,VWS V14.00,2013-08-01 11:19:00,
2013-08-01 07:24:00,63.7,63.1,30.00,West,276,0.0,0.0,98,0.00,,-RA,0.10,VWS V14.00,2013-08-01 11:24:00,
2013-08-01 07:29:00,63.7,63.1,30.00,West,276,0.0,0.0,98,0.00,,-RA,0.10,VWS V14.00,2013-08-01 11:29:00,
2013-08-01 07:34:00,63.8,63.3,30.00,West,276,0.0,0.0,98,0.00,,,0.10,VWS V14.00,2013-08-01 11:34:00,
2013-08-01 07:39:00,63.8,63.3,30.00,SSE,158,3.0,3.2,98,0.00,,,0.10,VWS V14.00,2013-08-01 11:39:00,
2013-08-01 07:45:00,64.0,63.5,30.00,SSW,200,0.0,3.2,98,0.00,,,0.10,VWS V14.00,2013-08-01 11:45:00,
2013-08-01 07:50:00,64.0,63.5,30.00,South,175,0.0,0.0,98,0.00,,,0.10,VWS V14.00,2013-08-01 11:50:00,
2013-08-01 07:56:00,64.2,63.7,30.00,SSE,163,2.5,2.7,98,0.00,,,0.10,VWS V14.00,2013-08-01 11:56:00,
2013-08-01 08:01:00,64.4,63.8,30.00,South,189,0.0,0.0,98,0.00,,OVC002,0.10,VWS V14.00,2013-08-01 12:01:00,
2013-08-01 08:07:00,64.4,63.8,30.00,SSW,211,0.0,0.0,98,0.00,,OVC002,0.10,VWS V14.00,2013-08-01 12:07:00,
2013-08-01 08:12:00,64.6,64.0,30.00,South,172,0.0,0.0,98,0.00,,OVC002,0.10,VWS V14.00,2013-08-01 12:12:00,
2013-08-01 08:17:00,64.6,64.0,30.00,South,172,0.0,0.0,98,0.00,,OVC002,0.10,VWS V14.00,2013-08-01 12:17:00,
2013-08-01 08:22:00,64.6,64.0,30.00,SSW,213,0.0,0.0,98,0.00,,OVC002,0.10,VWS V14.00,2013-08-01 12:22:00,
2013-08-01 08:28:00,64.8,64.2,30.00,SSW,213,0.0,0.0,98,0.00,,OVC002,0.10,VWS V14.00,2013-08-01 12:28:00,
2013-08-01 08:33:00,65.0,64.4,30.00,South,191,0.0,0.0,98,0.00,,OVC002,0.10,VWS V14.00,2013-08-01 12:33:00,
2013-08-01 08:38:00,65.2,64.6,30.00,WSW,243,0.0,0.0,98,0.00,,OVC002,0.10,VWS V14.00,2013-08-01 12:38:00,
2013-08-01 08:43:00,65.2,64.6,30.00,WSW,243,0.0,0.0,98,0.00,,OVC002,0.10,VWS V14.00,2013-08-01 12:43:00,
2013-08-01 08:48:00,65.3,64.8,30.00,WSW,243,0.0,0.0,98,0.00,,OVC002,0.10,VWS V14.00,2013-08-01 12:48:00,
2013-08-01 08:53:00,65.3,64.8,30.00,South,177,0.0,0.0,98,0.00,,OVC002,0.10,VWS V14.00,2013-08-01 12:53:00,
2013-08-01 09:00:00,65.7,65.1,30.00,WSW,256,0.0,0.0,98,0.00,,OVC002,0.10,VWS V14.00,2013-08-01 13:00:00,
2013-08-01 09:05:00,66.1,65.5,30.00,SSW,209,0.0,0.0,98,0.00,,OVC008,0.10,VWS V14.00,2013-08-01 13:05:00,
2013-08-01 09:10:00,66.1,65.5,30.00,SSE,163,0.0,0.0,98,0.00,,OVC008,0.10,VWS V14.00,2013-08-01 13:10:00,
2013-08-01 09:15:00,66.1,65.5,30.00,SSW,205,0.0,2.7,98,0.00,,OVC006,0.10,VWS V14.00,2013-08-01 13:15:00,
2013-08-01 09:21:00,66.4,65.9,30.00,SSE,155,0.0,3.2,98,0.00,,OVC006,0.10,VWS V14.00,2013-08-01 13:21:00,
2013-08-01 09:27:00,66.6,66.1,30.00,SW,220,0.0,2.7,98,0.00,,OVC006,0.10,VWS V14.00,2013-08-01 13:27:00,
2013-08-01 09:32:00,66.8,66.2,30.00,SW,226,3.0,3.2,98,0.00,,OVC006,0.10,VWS V14.00,2013-08-01 13:32:00,
2013-08-01 09:37:00,66.8,66.2,30.00,South,183,0.0,0.0,98,0.00,,OVC006,0.10,VWS V14.00,2013-08-01 13:37:00,
2013-08-01 09:42:00,66.8,66.2,30.00,South,191,2.5,3.2,98,0.00,,OVC006,0.10,VWS V14.00,2013-08-01 13:42:00,
2013-08-01 09:47:00,67.2,66.6,30.00,SSW,194,0.0,0.0,98,0.00,,OVC006,0.10,VWS V14.00,2013-08-01 13:47:00,
2013-08-01 09:52:00,67.4,66.8,30.00,SSE,165,2.5,3.8,98,0.00,,OVC006,0.10,VWS V14.00,2013-08-01 13:52:00,
2013-08-01 09:57:00,67.6,67.0,30.00,South,188,0.0,0.0,98,0.00,,OVC006,0.10,VWS V14.00,2013-08-01 13:57:00,
2013-08-01 10:03:00,67.9,67.3,30.00,SSE,154,2.5,3.8,98,0.00,,OVC012,0.10,VWS V14.00,2013-08-01 14:03:00,
2013-08-01 10:08:00,68.1,67.5,30.00,SSW,192,3.0,3.8,98,0.00,,OVC012,0.10,VWS V14.00,2013-08-01 14:08:00,
2013-08-01 10:13:00,68.5,67.9,30.00,SSE,167,3.4,4.8,98,0.00,,OVC012,0.10,VWS V14.00,2013-08-01 14:13:00,
2013-08-01 10:18:00,69.0,68.5,30.00,SE,128,0.0,4.3,98,0.00,,OVC012,0.10,VWS V14.00,2013-08-01 14:18:00,
2013-08-01 10:23:00,69.6,68.4,30.00,South,185,3.4,4.3,96,0.00,,OVC012,0.10,VWS V14.00,2013-08-01 14:23:00,
2013-08-01 10:28:00,69.8,68.0,30.00,SSW,203,0.0,7.0,94,0.00,,OVC012,0.10,VWS V14.00,2013-08-01 14:28:00,
2013-08-01 10:33:00,69.8,67.4,30.00,South,191,3.9,4.3,92,0.00,,OVC012,0.10,VWS V14.00,2013-08-01 14:33:00,
2013-08-01 10:39:00,69.8,67.7,30.00,South,176,3.4,7.0,93,0.00,,OVC012,0.10,VWS V14.00,2013-08-01 14:39:00,
2013-08-01 10:45:00,70.0,66.9,30.00,SSE,166,4.4,4.8,90,0.00,,OVC015,0.10,VWS V14.00,2013-08-01 14:45:00,
2013-08-01 10:50:00,70.3,67.3,30.00,ESE,118,0.0,3.2,90,0.00,,OVC015,0.10,VWS V14.00,2013-08-01 14:50:00,
2013-08-01 10:55:00,70.7,67.3,30.00,WNW,286,0.0,0.0,89,0.00,,OVC015,0.10,VWS V14.00,2013-08-01 14:55:00,
2013-08-01 11:01:00,70.9,65.8,30.00,SSE,164,0.0,0.0,84,0.00,,OVC022,0.10,VWS V14.00,2013-08-01 15:01:00,
2013-08-01 11:07:00,70.7,65.6,30.00,NW,326,3.0,4.3,84,0.00,,OVC022,0.10,VWS V14.00,2013-08-01 15:07:00,
2013-08-01 11:13:00,71.3,66.5,30.00,SSE,161,3.0,3.2,85,0.00,,OVC022,0.10,VWS V14.00,2013-08-01 15:13:00,
2013-08-01 11:18:00,71.4,65.3,30.00,SE,143,5.4,5.9,81,0.00,,OVC022,0.10,VWS V14.00,2013-08-01 15:18:00,
2013-08-01 11:24:00,72.2,66.0,30.00,SW,226,5.4,6.4,81,0.00,,OVC022,0.10,VWS V14.00,2013-08-01 15:24:00,
2013-08-01 11:29:00,72.4,65.1,30.00,WSW,240,3.9,4.3,78,0.00,,OVC022,0.10,VWS V14.00,2013-08-01 15:29:00,
2013-08-01 11:34:00,72.9,64.9,30.00,NW,317,5.9,6.4,76,0.00,,OVC022,0.10,VWS V14.00,2013-08-01 15:34:00,
2013-08-01 11:40:00,72.8,63.6,30.00,South,180,3.4,4.3,73,0.00,,OVC022,0.10,VWS V14.00,2013-08-01 15:40:00,
2013-08-01 11:45:00,72.8,64.4,30.00,West,261,8.4,9.1,75,0.00,,OVC022,0.10,VWS V14.00,2013-08-01 15:45:00,
2013-08-01 11:50:00,72.6,63.8,30.00,West,259,4.4,4.8,74,0.00,,OVC022,0.10,VWS V14.00,2013-08-01 15:50:00,
2013-08-01 11:55:00,73.1,64.3,30.00,SW,231,3.4,4.8,74,0.00,,OVC022,0.10,VWS V14.00,2013-08-01 15:55:00,
2013-08-01 12:00:00,73.3,63.7,30.00,WSW,246,5.9,6.4,72,0.00,,OVC022,0.10,VWS V14.00,2013-08-01 16:00:00,
2013-08-01 12:05:00,72.8,63.2,30.00,WNW,283,3.9,6.4,72,0.00,,BKN039,0.10,VWS V14.00,2013-08-01 16:05:00,
2013-08-01 12:10:00,72.4,62.5,30.00,WSW,253,3.9,7.5,71,0.00,,BKN039,0.10,VWS V14.00,2013-08-01 16:10:00,
2013-08-01 12:16:00,72.9,62.6,30.00,SSW,194,5.9,6.4,70,0.00,,BKN039,0.10,VWS V14.00,2013-08-01 16:16:00,
2013-08-01 12:21:00,73.1,62.8,30.00,WSW,247,3.9,6.4,70,0.00,,BKN039,0.10,VWS V14.00,2013-08-01 16:21:00,
2013-08-01 12:26:00,72.9,63.0,30.00,SW,234,5.9,6.4,71,0.00,,BKN039,0.10,VWS V14.00,2013-08-01 16:26:00,
2013-08-01 12:32:00,73.7,63.3,30.00,WSW,257,8.4,9.1,70,0.00,,BKN039,0.10,VWS V14.00,2013-08-01 16:32:00,
2013-08-01 12:37:00,73.7,63.3,30.00,SW,225,3.9,6.4,70,0.00,,BKN039,0.10,VWS V14.00,2013-08-01 16:37:00,
2013-08-01 12:42:00,74.1,62.4,30.00,WSW,244,3.4,7.5,67,0.00,,BKN039,0.10,VWS V14.00,2013-08-01 16:42:00,
2013-08-01 12:48:00,74.8,63.1,30.00,SSW,194,5.9,6.4,67,0.00,,BKN039,0.10,VWS V14.00,2013-08-01 16:48:00,
2013-08-01 12:53:00,74.1,62.8,30.00,WNW,303,6.4,7.5,68,0.00,,BKN039,0.10,VWS V14.00,2013-08-01 16:53:00,
2013-08-01 12:58:00,73.9,62.7,30.00,SW,226,3.9,6.4,68,0.00,,BKN039,0.10,VWS V14.00,2013-08-01 16:58:00,
2013-08-01 13:04:00,74.4,63.2,30.00,SSW,206,6.4,7.0,68,0.00,,OVC070,0.10,VWS V14.00,2013-08-01 17:04:00,
2013-08-01 13:09:00,75.0,63.3,30.00,WNW,302,3.9,4.3,67,0.00,,OVC070,0.10,VWS V14.00,2013-08-01 17:09:00,
2013-08-01 13:14:00,74.8,62.7,30.00,SW,226,3.0,7.5,66,0.00,,OVC070,0.10,VWS V14.00,2013-08-01 17:14:00,
2013-08-01 13:19:00,74.2,63.0,30.00,West,262,3.4,4.3,68,0.00,,OVC070,0.10,VWS V14.00,2013-08-01 17:19:00,
2013-08-01 13:24:00,73.9,62.7,30.00,West,265,3.0,4.8,68,0.00,,OVC070,0.10,VWS V14.00,2013-08-01 17:24:00,
2013-08-01 13:30:00,73.7,62.0,30.00,South,179,8.4,9.1,67,0.00,,OVC070,0.10,VWS V14.00,2013-08-01 17:30:00,
2013-08-01 13:35:00,73.3,62.5,30.00,West,267,4.4,9.7,69,0.00,,OVC070,0.10,VWS V14.00,2013-08-01 17:35:00,
2013-08-01 13:41:00,72.4,62.5,30.00,NW,312,3.4,9.7,71,0.00,,OVC070,0.10,VWS V14.00,2013-08-01 17:41:00,
2013-08-01 13:46:00,72.2,63.1,30.00,NW,307,4.4,7.5,73,0.00,,OVC070,0.10,VWS V14.00,2013-08-01 17:46:00,
2013-08-01 13:51:00,72.9,64.6,30.00,NW,316,5.4,7.0,75,0.00,,OVC070,0.10,VWS V14.00,2013-08-01 17:51:00,
2013-08-01 13:57:00,73.5,65.1,30.00,WSW,237,0.0,3.8,75,0.00,,OVC070,0.10,VWS V14.00,2013-08-01 17:57:00,
2013-08-01 14:02:00,74.4,64.0,29.97,South,177,0.0,3.2,70,0.00,,OVC060,0.10,VWS V14.00,2013-08-01 18:02:00,
2013-08-01 14:08:00,74.4,64.0,29.97,West,278,0.0,2.7,70,0.00,,OVC060,0.10,VWS V14.00,2013-08-01 18:08:00,
2013-08-01 14:13:00,75.5,64.7,29.97,WNW,292,4.4,4.8,69,0.00,,OVC060,0.10,VWS V14.00,2013-08-01 18:13:00,
2013-08-01 14:18:00,75.7,64.4,29.97,SSW,210,4.4,6.4,68,0.00,,OVC060,0.10,VWS V14.00,2013-08-01 18:18:00,
2013-08-01 14:23:00,75.5,63.8,29.97,NW,314,5.4,7.5,67,0.00,,OVC060,0.10,VWS V14.00,2013-08-01 18:23:00,
2013-08-01 14:28:00,75.7,62.7,29.97,NNW,339,4.4,7.5,64,0.00,,OVC060,0.10,VWS V14.00,2013-08-01 18:28:00,
2013-08-01 14:33:00,76.5,63.8,29.97,WNW,295,3.4,3.8,65,0.00,,OVC037,0.10,VWS V14.00,2013-08-01 18:33:00,
2013-08-01 14:39:00,76.1,63.0,29.97,NNW,345,5.9,7.5,64,0.00,,OVC037,0.10,VWS V14.00,2013-08-01 18:39:00,
2013-08-01 14:44:00,76.3,63.2,29.97,SE,135,4.4,4.8,64,0.00,,OVC037,0.10,VWS V14.00,2013-08-01 18:44:00,
2013-08-01 14:49:00,76.5,63.8,29.97,WNW,287,3.4,4.8,65,0.00,,OVC037,0.10,VWS V14.00,2013-08-01 18:49:00,
2013-08-01 14:54:00,76.5,62.9,29.97,WNW,297,2.5,4.3,63,0.00,,OVC037,0.10,VWS V14.00,2013-08-01 18:54:00,
2013-08-01 14:59:00,76.3,63.2,29.97,West,279,3.4,8.1,64,0.00,,OVC037,0.10,VWS V14.00,2013-08-01 18:59:00,
2013-08-01 15:05:00,76.6,64.0,29.97,North,357,0.0,4.3,65,0.00,,BKN035,0.10,VWS V14.00,2013-08-01 19:05:00,
2013-08-01 15:11:00,76.3,64.1,29.97,NW,318,6.9,7.5,66,0.00,,BKN035,0.10,VWS V14.00,2013-08-01 19:11:00,
2013-08-01 15:16:00,77.2,64.5,29.97,NW,323,8.9,9.7,65,0.00,,BKN035,0.10,VWS V14.00,2013-08-01 19:16:00,
2013-08-01 15:21:00,76.3,59.9,29.97,NNW,337,6.9,7.5,57,0.00,,BKN035,0.10,VWS V14.00,2013-08-01 19:21:00,
2013-08-01 15:27:00,75.7,61.8,29.97,NW,316,8.9,9.7,62,0.00,,BKN035,0.10,VWS V14.00,2013-08-01 19:27:00,
2013-08-01 15:32:00,75.3,61.0,29.97,NNW,348,6.4,9.7,61,0.00,,BKN035,0.10,VWS V14.00,2013-08-01 19:32:00,
2013-08-01 15:37:00,75.3,62.3,29.97,NNW,336,9.1,13.2,64,0.00,,BKN035,0.10,VWS V14.00,2013-08-01 19:37:00,
2013-08-01 15:42:00,75.5,60.7,29.97,NNW,338,3.9,9.7,60,0.00,,BKN035,0.10,VWS V14.00,2013-08-01 19:42:00,
2013-08-01 15:47:00,75.3,61.9,29.97,NNW,328,5.9,7.5,63,0.00,,SCT055,0.10,VWS V14.00,2013-08-01 19:47:00,
2013-08-01 15:52:00,75.3,61.9,29.97,WNW,299,3.9,4.3,63,0.00,,SCT055,0.10,VWS V14.00,2013-08-01 19:52:00,
2013-08-01 15:57:00,75.3,61.4,29.97,WSW,254,3.9,4.8,62,0.00,,SCT055,0.10,VWS V14.00,2013-08-01 19:57:00,
2013-08-01 16:03:00,75.7,61.3,29.97,NW,304,6.9,10.5,61,0.00,,BKN040,0.10,VWS V14.00,2013-08-01 20:03:00,
2013-08-01 16:08:00,75.3,61.0,29.97,North,349,6.9,9.1,61,0.00,,BKN040,0.10,VWS V14.00,2013-08-01 20:08:00,
2013-08-01 16:13:00,75.3,61.0,29.97,NW,313,5.9,8.6,61,0.00,,BKN040,0.10,VWS V14.00,2013-08-01 20:13:00,
2013-08-01 16:18:00,75.5,62.1,29.97,WNW,295,5.9,9.7,63,0.00,,BKN040,0.10,VWS V14.00,2013-08-01 20:18:00,
2013-08-01 16:23:00,75.5,60.2,29.97,NW,311,6.9,7.5,59,0.00,,BKN040,0.10,VWS V14.00,2013-08-01 20:23:00,
2013-08-01 16:29:00,75.9,61.5,29.97,NW,311,6.4,7.0,61,0.00,,BKN040,0.10,VWS V14.00,2013-08-01 20:29:00,
2013-08-01 16:34:00,77.0,62.1,29.97,North,353,3.4,6.4,60,0.00,,BKN040,0.10,VWS V14.00,2013-08-01 20:34:00,
2013-08-01 16:39:00,77.6,62.1,29.97,NW,318,6.9,7.5,59,0.00,,BKN040,0.10,VWS V14.00,2013-08-01 20:39:00,
2013-08-01 16:41:00,77.4,60.5,29.97,NW,306,6.9,9.1,56,0.00,,BKN040,0.10,VWS V14.00,2013-08-01 20:41:00,
2013-08-01 16:46:00,77.6,61.6,29.97,NW,318,5.4,7.0,58,0.00,,BKN040,0.10,VWS V14.00,2013-08-01 20:46:00,
2013-08-01 16:51:00,77.9,62.0,29.97,WNW,300,5.4,7.0,58,0.00,,BKN040,0.10,VWS V14.00,2013-08-01 20:51:00,
2013-08-01 16:56:00,78.3,62.3,29.97,WSW,243,3.0,4.3,58,0.00,,BKN040,0.10,VWS V14.00,2013-08-01 20:56:00,
2013-08-01 17:02:00,78.5,62.0,29.97,West,279,3.4,4.8,57,0.00,,BKN044,0.10,VWS V14.00,2013-08-01 21:02:00,
2013-08-01 17:07:00,78.7,61.7,29.97,NW,312,6.9,7.5,56,0.00,,BKN044,0.10,VWS V14.00,2013-08-01 21:07:00,
2013-08-01 17:12:00,78.3,60.8,29.97,North,353,7.4,9.7,55,0.00,,BKN044,0.10,VWS V14.00,2013-08-01 21:12:00,
2013-08-01 17:17:00,78.3,61.3,29.94,WNW,299,6.4,7.0,56,0.00,,BKN044,0.10,VWS V14.00,2013-08-01 21:17:00,
2013-08-01 17:22:00,77.8,59.8,29.94,NW,318,6.4,7.0,54,0.00,,BKN044,0.10,VWS V14.00,2013-08-01 21:22:00,
2013-08-01 17:27:00,77.6,60.7,29.94,NNW,332,3.9,5.9,56,0.00,,BKN044,0.10,VWS V14.00,2013-08-01 21:27:00,
2013-08-01 17:32:00,76.6,58.8,29.97,North,2,9.6,12.6,54,0.00,,BKN044,0.10,VWS V14.00,2013-08-01 21:32:00,
2013-08-01 17:38:00,75.9,59.6,29.97,NNW,328,8.4,9.7,57,0.00,,BKN044,0.10,VWS V14.00,2013-08-01 21:38:00,
2013-08-01 17:43:00,75.5,59.2,29.97,North,353,5.9,9.1,57,0.00,,BKN044,0.10,VWS V14.00,2013-08-01 21:43:00,
2013-08-01 17:48:00,75.3,60.0,29.97,NNW,328,8.9,9.7,59,0.00,,BKN044,0.10,VWS V14.00,2013-08-01 21:48:00,
2013-08-01 17:53:00,75.2,59.9,29.97,WNW,285,3.4,4.3,59,0.00,,BKN044,0.10,VWS V14.00,2013-08-01 21:53:00,
2013-08-01 17:58:00,75.3,60.5,29.97,WSW,242,3.0,4.8,60,0.00,,BKN044,0.10,VWS V14.00,2013-08-01 21:58:00,
2013-08-01 18:03:00,75.2,60.8,29.97,SW,223,4.4,4.8,61,0.00,,BKN080,0.10,VWS V14.00,2013-08-01 22:03:00,
2013-08-01 18:08:00,75.0,60.2,29.97,SSW,207,3.0,7.0,60,0.00,,BKN080,0.10,VWS V14.00,2013-08-01 22:08:00,
2013-08-01 18:14:00,74.8,60.5,29.97,WSW,256,3.0,3.8,61,0.00,,BKN080,0.10,VWS V14.00,2013-08-01 22:14:00,
2013-08-01 18:19:00,74.8,61.4,29.97,WNW,284,4.4,9.7,63,0.00,,BKN080,0.10,VWS V14.00,2013-08-01 22:19:00,
2013-08-01 18:24:00,75.3,62.3,29.97,NNW,336,3.0,3.8,64,0.00,,BKN080,0.10,VWS V14.00,2013-08-01 22:24:00,
2013-08-01 18:29:00,75.3,61.9,29.97,SW,219,3.0,3.8,63,0.00,,BKN080,0.10,VWS V14.00,2013-08-01 22:29:00,
2013-08-01 18:34:00,75.3,61.9,29.97,SW,230,3.0,3.8,63,0.00,,BKN080,0.10,VWS V14.00,2013-08-01 22:34:00,
2013-08-01 18:39:00,75.2,61.3,29.97,West,279,0.0,0.0,62,0.00,,BKN080,0.10,VWS V14.00,2013-08-01 22:39:00,
2013-08-01 18:45:00,75.2,62.2,29.97,West,261,0.0,4.3,64,0.00,,BKN080,0.10,VWS V14.00,2013-08-01 22:45:00,
2013-08-01 18:50:00,75.0,61.5,29.97,SW,233,2.5,4.8,63,0.00,,-RA,0.10,VWS V14.00,2013-08-01 22:50:00,
2013-08-01 18:55:00,75.2,61.3,29.97,SSE,153,3.4,3.8,62,0.00,,-RA,0.10,VWS V14.00,2013-08-01 22:55:00,
2013-08-01 19:00:00,75.0,61.1,29.97,SSW,201,5.4,6.4,62,0.00,,SCT055,0.10,VWS V14.00,2013-08-01 23:00:00,
2013-08-01 19:05:00,75.2,61.7,29.97,West,275,3.0,4.3,63,0.00,,SCT055,0.10,VWS V14.00,2013-08-01 23:05:00,
2013-08-01 19:11:00,75.2,61.7,29.97,WNW,303,3.0,4.8,63,0.00,,SCT055,0.10,VWS V14.00,2013-08-01 23:11:00,
2013-08-01 19:16:00,75.2,62.2,29.97,West,271,3.4,4.3,64,0.00,,SCT055,0.10,VWS V14.00,2013-08-01 23:16:00,
2013-08-01 19:21:00,75.2,61.7,29.97,WNW,302,3.4,3.8,63,0.00,,SCT055,0.10,VWS V14.00,2013-08-01 23:21:00,
2013-08-01 19:26:00,75.0,62.0,29.97,WSW,237,3.9,4.8,64,0.00,,SCT055,0.10,VWS V14.00,2013-08-01 23:26:00,
2013-08-01 19:31:00,75.0,61.1,29.97,WNW,289,0.0,2.7,62,0.00,,SCT055,0.10,VWS V14.00,2013-08-01 23:31:00,
2013-08-01 19:36:00,75.0,62.0,29.97,West,276,3.9,4.3,64,0.00,,SCT055,0.10,VWS V14.00,2013-08-01 23:36:00,
2013-08-01 19:42:00,74.4,60.1,29.97,NW,315,4.4,7.5,61,0.00,,SCT055,0.10,VWS V14.00,2013-08-01 23:42:00,
2013-08-01 19:47:00,73.9,59.6,29.97,NNW,348,5.9,6.4,61,0.00,,SCT055,0.10,VWS V14.00,2013-08-01 23:47:00,
2013-08-01 19:52:00,73.7,59.4,29.97,NW,312,5.9,6.4,61,0.00,,SCT055,0.10,VWS V14.00,2013-08-01 23:52:00,
2013-08-01 19:57:00,73.3,60.0,29.97,WNW,283,0.0,0.0,63,0.00,,SCT055,0.10,VWS V14.00,2013-08-01 23:57:00,
2013-08-01 20:02:00,73.1,59.8,30.00,NW,314,3.9,4.8,63,0.00,,CLR,0.10,VWS V14.00,2013-08-02 00:02:00,
2013-08-01 20:07:00,72.8,59.4,30.00,WNW,292,0.0,0.0,63,0.00,,CLR,0.10,VWS V14.00,2013-08-02 00:07:00,
2013-08-01 20:12:00,72.8,59.9,30.00,SSW,208,0.0,3.2,64,0.00,,CLR,0.10,VWS V14.00,2013-08-02 00:12:00,
2013-08-01 20:18:00,72.6,60.6,30.00,SE,142,3.0,4.3,66,0.00,,CLR,0.10,VWS V14.00,2013-08-02 00:18:00,
2013-08-01 20:23:00,72.2,60.2,30.00,South,188,2.5,3.2,66,0.00,,CLR,0.10,VWS V14.00,2013-08-02 00:23:00,
2013-08-01 20:28:00,72.0,60.0,30.00,SSW,212,2.5,5.9,66,0.00,,CLR,0.10,VWS V14.00,2013-08-02 00:28:00,
2013-08-01 20:33:00,71.8,59.9,30.00,South,181,3.0,3.8,66,0.00,,CLR,0.10,VWS V14.00,2013-08-02 00:33:00,
2013-08-01 20:38:00,71.6,59.7,30.00,SSW,194,3.0,3.2,66,0.00,,CLR,0.10,VWS V14.00,2013-08-02 00:38:00,
2013-08-01 20:43:00,71.4,59.5,30.00,SW,232,0.0,2.7,66,0.00,,CLR,0.10,VWS V14.00,2013-08-02 00:43:00,
2013-08-01 20:48:00,71.3,59.8,30.00,South,191,0.0,0.0,67,0.00,,CLR,0.10,VWS V14.00,2013-08-02 00:48:00,
2013-08-01 20:53:00,70.9,59.8,30.00,West,264,2.5,2.7,68,0.00,,CLR,0.10,VWS V14.00,2013-08-02 00:53:00,
2013-08-01 20:58:00,70.3,59.7,30.00,WNW,286,0.0,0.0,69,0.00,,CLR,0.10,VWS V14.00,2013-08-02 00:58:00,
2013-08-01 21:04:00,70.3,60.1,30.00,WNW,286,0.0,0.0,70,0.00,,CLR,0.10,VWS V14.00,2013-08-02 01:04:00,
2013-08-01 21:09:00,70.2,60.7,30.00,SE,137,2.5,2.7,72,0.00,,CLR,0.10,VWS V14.00,2013-08-02 01:09:00,
2013-08-01 21:14:00,70.0,60.5,30.00,SE,137,0.0,0.0,72,0.00,,CLR,0.10,VWS V14.00,2013-08-02 01:14:00,
2013-08-01 21:19:00,70.0,60.1,30.00,SSE,163,2.5,2.7,71,0.00,,CLR,0.10,VWS V14.00,2013-08-02 01:19:00,
2013-08-01 21:24:00,70.2,60.3,30.00,SSE,151,3.9,4.3,71,0.00,,CLR,0.10,VWS V14.00,2013-08-02 01:24:00,
2013-08-01 21:29:00,69.2,59.4,30.00,NW,317,3.0,4.8,71,0.00,,CLR,0.10,VWS V14.00,2013-08-02 01:29:00,
2013-08-01 21:34:00,69.0,60.0,30.00,NW,317,0.0,0.0,73,0.00,,CLR,0.10,VWS V14.00,2013-08-02 01:34:00,
2013-08-01 21:39:00,68.8,60.2,30.00,NW,317,0.0,2.7,74,0.00,,CLR,0.10,VWS V14.00,2013-08-02 01:39:00,
2013-08-01 21:44:00,68.7,60.4,30.00,NW,320,0.0,2.7,75,0.00,,CLR,0.10,VWS V14.00,2013-08-02 01:44:00,
2013-08-01 21:49:00,68.7,60.8,30.00,NNW,335,0.0,0.0,76,0.00,,CLR,0.10,VWS V14.00,2013-08-02 01:49:00,
2013-08-01 21:54:00,68.8,61.0,30.00,NNW,335,0.0,0.0,76,0.00,,CLR,0.10,VWS V14.00,2013-08-02 01:54:00,
2013-08-01 21:59:00,68.7,61.5,30.00,ENE,63,0.0,0.0,78,0.00,,CLR,0.10,VWS V14.00,2013-08-02 01:59:00,
2013-08-01 22:05:00,68.5,61.4,30.03,ENE,63,2.5,2.7,78,0.00,,CLR,0.10,VWS V14.00,2013-08-02 02:05:00,
2013-08-01 22:10:00,68.1,61.4,30.03,ESE,117,2.5,2.7,79,0.00,,CLR,0.10,VWS V14.00,2013-08-02 02:10:00,
2013-08-01 22:15:00,67.9,61.5,30.03,East,84,3.0,3.8,80,0.00,,CLR,0.10,VWS V14.00,2013-08-02 02:15:00,
2013-08-01 22:21:00,67.7,61.4,30.03,East,84,3.0,3.2,80,0.00,,CLR,0.10,VWS V14.00,2013-08-02 02:21:00,
2013-08-01 22:26:00,67.6,61.5,30.03,East,84,3.0,3.8,81,0.00,,CLR,0.10,VWS V14.00,2013-08-02 02:26:00,
2013-08-01 22:32:00,67.2,61.5,30.03,SSE,163,3.0,3.2,82,0.00,,CLR,0.10,VWS V14.00,2013-08-02 02:32:00,
2013-08-01 22:37:00,67.2,61.9,30.03,ENE,70,0.0,3.2,83,0.00,,CLR,0.10,VWS V14.00,2013-08-02 02:37:00,
2013-08-01 22:42:00,67.2,61.9,30.03,ENE,70,0.0,2.7,83,0.00,,CLR,0.10,VWS V14.00,2013-08-02 02:42:00,
2013-08-01 22:47:00,66.8,61.5,30.03,ENE,70,0.0,0.0,83,0.00,,CLR,0.10,VWS V14.00,2013-08-02 02:47:00,
2013-08-01 22:52:00,67.0,62.0,30.03,ENE,70,3.0,3.2,84,0.00,,CLR,0.10,VWS V14.00,2013-08-02 02:52:00,
2013-08-01 22:58:00,66.8,62.5,30.03,ENE,70,3.0,3.2,86,0.00,,CLR,0.10,VWS V14.00,2013-08-02 02:58:00,
2013-08-01 23:03:00,66.4,62.1,30.03,ENE,70,0.0,0.0,86,0.00,,FEW021,0.10,VWS V14.00,2013-08-02 03:03:00,
2013-08-01 23:08:00,66.3,62.0,30.03,ENE,70,0.0,0.0,86,0.00,,FEW021,0.10,VWS V14.00,2013-08-02 03:08:00,
2013-08-01 23:13:00,65.9,61.9,30.03,NNW,328,0.0,0.0,87,0.00,,FEW021,0.10,VWS V14.00,2013-08-02 03:13:00,
2013-08-01 23:18:00,65.9,61.9,30.03,NNW,328,0.0,0.0,87,0.00,,FEW021,0.10,VWS V14.00,2013-08-02 03:18:00,
2013-08-01 23:23:00,65.9,61.9,30.03,NNW,327,0.0,0.0,87,0.00,,FEW021,0.10,VWS V14.00,2013-08-02 03:23:00,
2013-08-01 23:29:00,65.3,61.7,30.03,South,173,0.0,3.2,88,0.00,,FEW021,0.10,VWS V14.00,2013-08-02 03:29:00,
2013-08-01 23:34:00,65.3,61.7,30.03,SE,128,3.0,3.2,88,0.00,,FEW021,0.10,VWS V14.00,2013-08-02 03:34:00,
2013-08-01 23:39:00,65.5,62.2,30.03,East,85,0.0,0.0,89,0.00,,FEW021,0.10,VWS V14.00,2013-08-02 03:39:00,
2013-08-01 23:44:00,65.3,62.0,30.03,East,85,0.0,0.0,89,0.00,,FEW021,0.10,VWS V14.00,2013-08-02 03:44:00,
2013-08-01 23:49:00,65.0,62.0,30.03,NNW,341,0.0,3.2,90,0.00,,FEW021,0.10,VWS V14.00,2013-08-02 03:49:00,
2013-08-01 23:54:00,65.0,62.0,30.03,NNW,341,0.0,2.7,90,0.00,,FEW021,0.10,VWS V14.00,2013-08-02 03:54:00,
2013-08-01 23:59:00,65.0,62.3,30.03,NNW,341,0.0,0.0,91,0.00,,FEW021,0.10,VWS V14.00,2013-08-02 03:59:00,